Houghton Lake, MI

10:18 AM EST on February 07, 2016 (GMT -0500)
Roscommon County

Weather History for KHTL - December, 2012

Change the Weather History Date:

Saturday, December 15, 2012

  Actual Average Record
Temperature  
Mean Temperature 32 °F 24 °F  
Max Temperature 36 °F 30 °F 50 °F (2011)
Min Temperature 27 °F 18 °F -8 °F (1926)
Degree Days  
Heating Degree Days 33 41  
Month to date heating degree days 481 580  
Since 1 July heating degree days 2196 2463  
Moisture  
Dew Point 31 °F    
Average Humidity 91    
Maximum Humidity 100    
Minimum Humidity 82    
Precipitation  
Precipitation 0.19 in 0.05 in 1.39 in (1971)
Month to date precipitation 1.59 0.89  
Year to date precipitation 32.00 27.99  
Snow  
Snow T in 0.60 in 7.60 in (1987)
Month to date snowfall 5.3 7.7  
Since 1 July snowfall 12.5 16.8  
Snow Depth 2.00 in    
Sea Level Pressure  
Sea Level Pressure 29.94 in    
Wind  
Wind Speed 11 mph (ESE)    
Max Wind Speed 22 mph    
Max Gust Speed 29 mph    
Visibility 6 miles    
Events Rain , Snow    
T = Trace of Precipitation, MM = Missing Value Source: NWS Daily Summary

Daily Weather History Graph

Daily Weather History Graph

Search for Another Location

Airport or City:

Trip Planner

Search our weather history database for the weather conditions in past years. The results will help you decide how hot, cold, wet, or windy it might be!

Date:

Astronomy

Dec. 15, 2012 Rise Set
Actual Time 8:08 AM EST 5:00 PM EST
Civil Twilight 7:34 AM EST 5:33 PM EST
Nautical Twilight 6:58 AM EST 6:10 PM EST
Astronomical Twilight 6:22 AM EST 6:45 PM EST
Moon 9:56 AM EST (12/15) 8:08 PM EST (12/15)
Length of Visible Light 9h 58m
Length of Day
8h 51m
Waxing Crescent, 8% of the Moon is Illuminated
Dec 15
Waxing Crescent
Dec 20
First Quarter
Dec 28
Full
Jan 4
Last Quarter
Jan 11
New

Hourly Weather History & Observations

Time (EST) Temp. Windchill Dew Point Humidity Pressure Visibility Wind Dir Wind Speed Gust Speed Precip Events Conditions
12:53 AM 28.9 °F 21.9 °F 27.0 °F 92% 30.21 in 10.0 mi East 6.9 mph - N/A   Overcast
1:53 AM 28.9 °F 22.8 °F 27.0 °F 92% 30.19 in 10.0 mi East 5.8 mph - N/A   Overcast
2:53 AM 30.9 °F 23.5 °F 28.9 °F 92% 30.19 in 10.0 mi East 8.1 mph - N/A   Overcast
3:53 AM 32.0 °F 23.6 °F 30.0 °F 92% 30.17 in 10.0 mi ESE 10.4 mph - N/A   Overcast
4:30 AM 33.8 °F 26.4 °F 30.2 °F 87% 30.12 in 10.0 mi ESE 9.2 mph - N/A   Overcast
4:53 AM 33.1 °F 26.1 °F 30.9 °F 92% 30.16 in 10.0 mi ESE 8.1 mph - N/A   Overcast
5:53 AM 33.1 °F 24.9 °F 30.9 °F 92% 30.16 in 10.0 mi ESE 10.4 mph - N/A   Overcast
6:53 AM 33.1 °F 24.4 °F 30.0 °F 89% 30.15 in 10.0 mi ESE 11.5 mph 20.7 mph N/A   Overcast
7:31 AM 33.8 °F 26.4 °F 30.2 °F 87% 30.11 in 8.0 mi ESE 9.2 mph 20.7 mph N/A   Overcast
7:53 AM 33.1 °F 24.4 °F 30.9 °F 92% 30.14 in 7.0 mi ESE 11.5 mph - N/A   Overcast
8:53 AM 33.1 °F 23.9 °F 30.9 °F 92% 30.11 in 5.0 mi ESE 12.7 mph - N/A   Overcast
9:43 AM 33.8 °F 25.3 °F 30.2 °F 87% 30.04 in 5.0 mi ESE 11.5 mph - N/A   Mostly Cloudy
9:53 AM 34.0 °F 25.5 °F 30.9 °F 89% 30.08 in 5.0 mi ESE 11.5 mph - N/A   Scattered Clouds
10:53 AM 35.1 °F 26.4 °F 30.9 °F 85% 30.04 in 6.0 mi ESE 12.7 mph - N/A   Clear
11:53 AM 35.1 °F 26.9 °F 30.9 °F 85% 30.04 in 6.0 mi SE 11.5 mph 20.7 mph N/A   Overcast
12:53 PM 35.1 °F 25.2 °F 30.9 °F 85% 29.96 in 5.0 mi ESE 16.1 mph 20.7 mph N/A   Overcast
1:53 PM 35.1 °F 26.9 °F 30.9 °F 85% 29.96 in 4.0 mi SE 11.5 mph - N/A   Overcast
2:26 PM 35.6 °F 29.9 °F 32.0 °F 87% 29.93 in 4.0 mi SSE 6.9 mph - N/A   Overcast
2:32 PM 33.8 °F 27.7 °F 30.2 °F 87% 29.92 in 2.5 mi SE 6.9 mph - 0.00 in Snow Light Snow
2:35 PM 33.8 °F 27.7 °F 30.2 °F 87% 29.92 in 1.5 mi SE 6.9 mph - 0.00 in Snow Light Snow
2:40 PM 33.8 °F 27.0 °F 30.2 °F 87% 29.91 in 0.8 mi SE 8.1 mph - 0.00 in Snow Light Snow
2:53 PM 33.1 °F 25.5 °F 30.9 °F 92% 29.94 in 0.8 mi East 9.2 mph - 0.02 in Snow Light Snow
3:10 PM 33.8 °F 25.8 °F 32.0 °F 93% 29.88 in 0.8 mi East 10.4 mph - 0.03 in Snow Light Snow
3:21 PM 33.8 °F 25.8 °F 32.0 °F 93% 29.87 in 1.2 mi East 10.4 mph - 0.04 in Snow Light Snow
3:37 PM 33.8 °F 24.8 °F 32.0 °F 93% 29.85 in 2.0 mi East 12.7 mph - 0.04 in   Overcast
3:53 PM 33.1 °F 24.4 °F 32.0 °F 96% 29.88 in 2.0 mi East 11.5 mph - 0.04 in Snow Light Snow
4:07 PM 33.8 °F 24.8 °F 32.0 °F 93% 29.83 in 3.0 mi East 12.7 mph - 0.01 in Snow Light Snow
4:34 PM 33.8 °F 24.3 °F 33.8 °F 100% 29.80 in 4.0 mi East 13.8 mph - 0.02 in Rain Light Rain
4:47 PM 33.8 °F 24.3 °F 33.8 °F 100% 29.81 in 4.0 mi East 13.8 mph - 0.02 in Rain Light Rain
4:53 PM 34.0 °F 25.5 °F 33.1 °F 96% 29.84 in 4.0 mi East 11.5 mph 20.7 mph 0.02 in Snow Light Snow
5:53 PM 35.1 °F 25.5 °F 33.1 °F 92% 29.80 in 4.0 mi ESE 15.0 mph 25.3 mph 0.03 in   Overcast
6:53 PM 35.1 °F 24.8 °F 34.0 °F 96% 29.78 in 7.0 mi ESE 17.3 mph 25.3 mph 0.00 in Rain Light Rain
7:42 PM 35.6 °F 25.9 °F 33.8 °F 93% 29.72 in 7.0 mi ESE 16.1 mph 24.2 mph 0.00 in   Overcast
7:53 PM 35.1 °F 25.2 °F 33.1 °F 92% 29.76 in 7.0 mi ESE 16.1 mph 23.0 mph 0.00 in Rain Light Rain
8:28 PM 33.8 °F 23.9 °F 32.0 °F 93% 29.71 in 3.0 mi ESE 15.0 mph 23.0 mph 0.04 in Snow Light Snow
8:53 PM 34.0 °F 25.0 °F 32.0 °F 92% 29.73 in 6.0 mi ESE 12.7 mph 24.2 mph 0.05 in Snow Light Snow
9:53 PM 35.1 °F 27.4 °F 33.1 °F 92% 29.70 in 7.0 mi ESE 10.4 mph 18.4 mph 0.01 in   Overcast
10:53 PM 36.0 °F 28.5 °F 35.1 °F 97% 29.67 in 6.0 mi ESE 10.4 mph 18.4 mph 0.01 in   Overcast
11:18 PM 35.6 °F 27.5 °F 35.6 °F 100% 29.63 in 5.0 mi SE 11.5 mph 16.1 mph N/A   Overcast
11:53 PM 36.0 °F 29.6 °F 35.1 °F 97% 29.64 in 4.0 mi SE 8.1 mph - 0.01 in   Overcast